This is the latest recevied weather packets stored in our database for station/object IK2ILW-6. If no packets are shown the sender has not sent any weather packets the latest 10 day(s).
| Time | Temp. | Humidity | Pressure | Rain* | Wind** | Luminosity | Snow |
|---|---|---|---|---|---|---|---|
| 1778061991 | 2.78° C | 97% | 1009.9 hPa | 16 mm | - | 81 W/m² | - |
| 1778061694 | 2.22° C | 97% | 1009.6 hPa | 18.03 mm | - | 54 W/m² | - |
| 1778061398 | 2.78° C | 97% | 1009.2 hPa | 23.11 mm | - | 70 W/m² | - |
| 1778061083 | 2.22° C | 97% | 1009.4 hPa | 25.91 mm | - | 105 W/m² | - |
| 1778060788 | 2.22° C | 97% | 1009.9 hPa | 27.94 mm | - | 63 W/m² | - |
| 1778060493 | 2.78° C | 97% | 1009.5 hPa | 26.92 mm | - | 165 W/m² | - |
| 1778060198 | 2.22° C | 97% | 1009.4 hPa | 24.89 mm | - | 58 W/m² | - |
| 1778059902 | 2.22° C | 97% | 1009.1 hPa | 23.11 mm | - | 42 W/m² | - |
| 1778059587 | 2.22° C | 97% | 1008.8 hPa | 22.1 mm | - | 70 W/m² | - |
| 1778059296 | 2.22° C | 97% | 1008.8 hPa | 21.08 mm | - | 56 W/m² | - |
| 1778059000 | 2.22° C | 97% | 1008.4 hPa | 18.03 mm | - | 49 W/m² | - |
| 1778058685 | 2.22° C | 96% | 1009 hPa | 14.99 mm | - | 49 W/m² | - |
| 1778058390 | 2.22° C | 96% | 1008.8 hPa | 11.94 mm | - | 83 W/m² | - |
| 1778058092 | 1.67° C | 96% | 1008.8 hPa | 9.91 mm | - | 74 W/m² | - |
| 1778057796 | 1.67° C | 96% | 1009 hPa | 5.08 mm | - | 74 W/m² | - |
| 1778057501 | 2.22° C | 96% | 1009 hPa | 2.03 mm | - | 63 W/m² | - |
| 1778057185 | 2.78° C | 96% | 1009 hPa | 0 mm | - | 90 W/m² | - |
| 1778056890 | 2.78° C | 96% | 1008.5 hPa | 0 mm | - | 149 W/m² | - |
| 1778056594 | 2.78° C | 96% | 1008.8 hPa | 0 mm | - | 163 W/m² | - |
| 1778056283 | 2.78° C | 95% | 1008.8 hPa | 0 mm | - | 125 W/m² | - |
| 1778055986 | 3.33° C | 96% | 1008.8 hPa | 0 mm | - | 149 W/m² | - |
| 1778055691 | 3.33° C | 96% | 1008.6 hPa | 0 mm | - | 311 W/m² | - |
| 1778055396 | 3.33° C | 96% | 1008.6 hPa | 0 mm | - | 357 W/m² | - |
| 1778055101 | 3.33° C | 96% | 1008.9 hPa | 0 mm | - | 279 W/m² | - |
| 1778054786 | 3.33° C | 96% | 1008.5 hPa | 0 mm | - | 471 W/m² | - |
* Rain latest hour (hover to see other rain measurements)
** Current wind speed in m/s (hover to see current wind gust speed)